| time (UTC) | temp C | wind direction | speed KPH | gust KPH | rain 1hr cm | rain 24hr cm | rain mn cm | humidity % | barometer mb |
| 20260507031428 | 11 | 0 | 0.0 | 3.2 | 0.00 | 0.00 | 0.00 | 77 | 1016.2 |
| 20260507030927 | 11 | 0 | 0.0 | 3.2 | 0.00 | 0.00 | 0.00 | 76 | 1016.1 |
| 20260507030426 | 12 | 344 | 3.2 | 3.2 | 0.00 | 0.00 | 0.00 | 77 | 1016.1 |
| 20260507025927 | 12 | 0 | 0.0 | 0.0 | 0.00 | 0.00 | 0.00 | 76 | 1016.0 |
| 20260507025425 | 12 | 0 | 0.0 | 0.0 | 0.00 | 0.00 | 0.00 | 76 | 1016.1 |
| 20260507024925 | 12 | 0 | 0.0 | 0.0 | 0.00 | 0.00 | 0.00 | 76 | 1016.0 |
| 20260507024427 | 12 | 0 | 0.0 | 0.0 | 0.00 | 0.00 | 0.00 | 76 | 1015.9 |
| 20260507023926 | 12 | 0 | 0.0 | 0.0 | 0.00 | 0.00 | 0.00 | 76 | 1015.9 |
| 20260507023425 | 12 | 0 | 0.0 | 0.0 | 0.00 | 0.00 | 0.00 | 76 | 1015.8 |
| 20260507022927 | 12 | 0 | 0.0 | 0.0 | 0.00 | 0.00 | 0.00 | 76 | 1015.8 |
| 20260507022425 | 12 | 0 | 0.0 | 0.0 | 0.00 | 0.00 | 0.00 | 76 | 1015.7 |
| 20260507021924 | 12 | 0 | 0.0 | 0.0 | 0.00 | 0.00 | 0.00 | 75 | 1015.7 |
| 20260507021424 | 12 | 0 | 0.0 | 0.0 | 0.00 | 0.00 | 0.00 | 75 | 1015.7 |
| 20260507020926 | 12 | 0 | 0.0 | 0.0 | 0.00 | 0.00 | 0.00 | 76 | 1015.5 |
| 20260507020424 | 12 | 0 | 0.0 | 1.6 | 0.00 | 0.00 | 0.00 | 75 | 1015.4 |
| 20260507015924 | 12 | 0 | 0.0 | 3.2 | 0.00 | 0.00 | 0.00 | 74 | 1015.4 |
| 20260507015423 | 12 | 0 | 0.0 | 4.8 | 0.00 | 0.00 | 0.00 | 74 | 1015.3 |
| 20260507014923 | 12 | 360 | 1.6 | 4.8 | 0.00 | 0.00 | 0.00 | 74 | 1015.1 |
| 20260507014423 | 13 | 0 | 0.0 | 4.8 | 0.00 | 0.00 | 0.00 | 73 | 1015.0 |
| 20260507013922 | 13 | 0 | 0.0 | 3.2 | 0.00 | 0.00 | 0.00 | 72 | 1015.0 |
| 20260507013423 | 13 | 63 | 1.6 | 4.8 | 0.00 | 0.00 | 0.00 | 72 | 1014.9 |
| 20260507012923 | 13 | 63 | 3.2 | 4.8 | 0.00 | 0.00 | 0.00 | 72 | 1014.9 |
| 20260507012423 | 13 | 67 | 1.6 | 6.4 | 0.00 | 0.00 | 0.00 | 71 | 1014.9 |
| 20260507011924 | 13 | 62 | 3.2 | 6.4 | 0.00 | 0.00 | 0.00 | 71 | 1014.8 |
| 20260507011423 | 13 | 63 | 3.2 | 6.4 | 0.00 | 0.00 | 0.00 | 70 | 1014.8 |
| 20260507010921 | 13 | 61 | 3.2 | 6.4 | 0.00 | 0.00 | 0.00 | 70 | 1014.8 |
| 20260507010423 | 13 | 80 | 4.8 | 6.4 | 0.00 | 0.00 | 0.00 | 70 | 1014.8 |
| 20260507005921 | 13 | 75 | 3.2 | 6.4 | 0.00 | 0.00 | 0.00 | 70 | 1014.8 |
| 20260507005420 | 13 | 75 | 3.2 | 4.8 | 0.00 | 0.00 | 0.00 | 70 | 1014.8 |
| 20260507004923 | 14 | 85 | 3.2 | 6.4 | 0.00 | 0.00 | 0.00 | 70 | 1014.8 |
| 20260507004421 | 14 | 76 | 4.8 | 6.4 | 0.00 | 0.00 | 0.00 | 69 | 1014.8 |
| 20260507003924 | 14 | 112 | 4.8 | 9.7 | 0.00 | 0.00 | 0.00 | 69 | 1014.9 |
| 20260507003421 | 14 | 80 | 3.2 | 9.7 | 0.00 | 0.00 | 0.00 | 69 | 1014.9 |
| 20260507002921 | 14 | 57 | 4.8 | 9.7 | 0.00 | 0.00 | 0.00 | 67 | 1015.0 |
| 20260507002423 | 14 | 67 | 4.8 | 8.0 | 0.00 | 0.00 | 0.00 | 69 | 1014.9 |
| 20260507001920 | 14 | 53 | 4.8 | 8.0 | 0.00 | 0.00 | 0.00 | 69 | 1015.0 |
| 20260507001421 | 14 | 38 | 4.8 | 8.0 | 0.00 | 0.00 | 0.00 | 68 | 1014.9 |
| 20260507000920 | 14 | 41 | 3.2 | 8.0 | 0.00 | 0.00 | 0.00 | 68 | 1014.9 |
| 20260507000420 | 14 | 42 | 3.2 | 12.9 | 0.00 | 0.00 | 0.00 | 67 | 1014.8 |
| 20260506235920 | 14 | 27 | 4.8 | 12.9 | 0.00 | 0.00 | 0.00 | 67 | 1014.9 |
| 20260506235421 | 14 | 30 | 3.2 | 12.9 | 0.00 | 0.00 | 0.00 | 67 | 1014.9 |
| 20260506234919 | 14 | 18 | 3.2 | 11.3 | 0.00 | 0.00 | 0.00 | 68 | 1014.7 |
| 20260506234418 | 14 | 340 | 3.2 | 11.3 | 0.00 | 0.00 | 0.00 | 66 | 1014.9 |
| 20260506233919 | 15 | 360 | 4.8 | 11.3 | 0.00 | 0.00 | 0.00 | 67 | 1014.7 |
| 20260506233418 | 15 | 337 | 6.4 | 16.1 | 0.00 | 0.00 | 0.00 | 66 | 1014.7 |
| 20260506232919 | 15 | 30 | 6.4 | 16.1 | 0.00 | 0.00 | 0.00 | 65 | 1014.7 |
| 20260506232419 | 15 | 325 | 8.0 | 11.3 | 0.00 | 0.00 | 0.00 | 65 | 1014.6 |
| 20260506231918 | 15 | 336 | 4.8 | 8.0 | 0.00 | 0.00 | 0.00 | 65 | 1014.6 |
| 20260506231420 | 15 | 14 | 3.2 | 8.0 | 0.00 | 0.00 | 0.00 | 67 | 1014.4 |
| 20260506230918 | 15 | 360 | 4.8 | 4.8 | 0.00 | 0.00 | 0.00 | 68 | 1014.3 |
| 20260506230418 | 15 | 0 | 0.0 | 4.8 | 0.00 | 0.00 | 0.00 | 68 | 1014.3 |
| 20260506225918 | 15 | 105 | 1.6 | 4.8 | 0.00 | 0.00 | 0.00 | 67 | 1014.3 |
| 20260506225418 | 15 | 360 | 1.6 | 6.4 | 0.00 | 0.00 | 0.00 | 68 | 1014.3 |
| 20260506224917 | 15 | 0 | 0.0 | 8.0 | 0.00 | 0.00 | 0.00 | 69 | 1014.3 |
| 20260506224418 | 15 | 107 | 6.4 | 8.0 | 0.00 | 0.00 | 0.00 | 67 | 1014.1 |
| 20260506223917 | 15 | 86 | 1.6 | 6.4 | 0.00 | 0.00 | 0.00 | 69 | 1014.1 |
| 20260506223417 | 15 | 86 | 3.2 | 6.4 | 0.00 | 0.00 | 0.00 | 67 | 1014.1 |
| 20260506222917 | 15 | 0 | 0.0 | 6.4 | 0.00 | 0.00 | 0.00 | 67 | 1013.8 |
| 20260506222417 | 15 | 360 | 3.2 | 4.8 | 0.00 | 0.00 | 0.00 | 68 | 1013.9 |
| 20260506221918 | 15 | 360 | 1.6 | 8.0 | 0.00 | 0.00 | 0.00 | 68 | 1013.9 |
| 20260506221520 | 15 | 114 | 3.2 | 8.0 | 0.00 | 0.00 | 0.00 | 66 | 1013.7 |
| 20260506221017 | 15 | 79 | 3.2 | 8.0 | 0.00 | 0.00 | 0.00 | 67 | 1013.6 |
| 20260506220516 | 15 | 360 | 4.8 | 17.7 | 0.00 | 0.00 | 0.00 | 66 | 1013.6 |
| 20260506220115 | 15 | 86 | 3.2 | 17.7 | 0.00 | 0.00 | 0.00 | 66 | 1013.5 |
| 20260506215618 | 16 | 92 | 4.8 | 17.7 | 0.00 | 0.00 | 0.00 | 65 | 1013.1 |
| 20260506215140 | 16 | 60 | 8.0 | 19.3 | 0.00 | 0.00 | 0.00 | 66 | 1012.9 |
| 20260506214637 | 16 | 80 | 3.2 | 19.3 | 0.00 | 0.00 | 0.00 | 64 | 1012.9 |
| 20260506214142 | 16 | 42 | 9.7 | 19.3 | 0.00 | 0.00 | 0.00 | 65 | 1012.8 |
| 20260506213641 | 16 | 28 | 9.7 | 19.3 | 0.00 | 0.00 | 0.00 | 65 | 1012.8 |
| 20260506213139 | 16 | 34 | 6.4 | 17.7 | 0.00 | 0.00 | 0.00 | 66 | 1012.9 |
| 20260506212643 | 16 | 5 | 8.0 | 17.7 | 0.00 | 0.00 | 0.00 | 66 | 1012.9 |
| 20260506212139 | 16 | 11 | 11.3 | 19.3 | 0.00 | 0.00 | 0.00 | 64 | 1012.7 |
| 20260506211641 | 16 | 27 | 6.4 | 22.5 | 0.00 | 0.00 | 0.00 | 64 | 1012.7 |
| 20260506211140 | 16 | 49 | 9.7 | 22.5 | 0.00 | 0.00 | 0.00 | 64 | 1012.7 |
| 20260506210639 | 16 | 67 | 9.7 | 17.7 | 0.00 | 0.00 | 0.00 | 66 | 1012.7 |
| 20260506210142 | 16 | 61 | 6.4 | 17.7 | 0.00 | 0.00 | 0.00 | 66 | 1012.8 |
| 20260506205642 | 16 | 60 | 6.4 | 12.9 | 0.00 | 0.00 | 0.00 | 64 | 1012.8 |
| 20260506205140 | 16 | 57 | 6.4 | 9.7 | 0.00 | 0.00 | 0.00 | 64 | 1013.0 |
| 20260506204645 | 16 | 138 | 3.2 | 11.3 | 0.00 | 0.00 | 0.00 | 64 | 1012.9 |
| 20260506204138 | 16 | 67 | 9.7 | 11.3 | 0.00 | 0.00 | 0.00 | 65 | 1013.1 |
| 20260506203644 | 16 | 0 | 0.0 | 8.0 | 0.00 | 0.00 | 0.00 | 63 | 1013.2 |
| 20260506203138 | 16 | 121 | 4.8 | 9.7 | 0.00 | 0.00 | 0.00 | 66 | 1013.4 |
| 20260506202637 | 16 | 75 | 6.4 | 9.7 | 0.00 | 0.00 | 0.00 | 65 | 1013.6 |
| 20260506202140 | 16 | 153 | 3.2 | 8.0 | 0.00 | 0.00 | 0.00 | 64 | 1013.9 |
| 20260506201643 | 16 | 107 | 3.2 | 8.0 | 0.00 | 0.00 | 0.00 | 64 | 1014.0 |
| 20260506201140 | 16 | 196 | 6.4 | 11.3 | 0.00 | 0.00 | 0.00 | 63 | 1014.1 |
| 20260506200638 | 16 | 185 | 3.2 | 11.3 | 0.00 | 0.00 | 0.00 | 64 | 1014.2 |
| 20260506200143 | 16 | 163 | 9.7 | 12.9 | 0.00 | 0.00 | 0.00 | 64 | 1014.3 |
| 20260506195637 | 16 | 200 | 3.2 | 12.9 | 0.00 | 0.00 | 0.00 | 64 | 1014.5 |
| 20260506195141 | 16 | 131 | 8.0 | 14.5 | 0.00 | 0.00 | 0.00 | 63 | 1014.5 |
| 20260506194641 | 16 | 115 | 6.4 | 14.5 | 0.00 | 0.00 | 0.00 | 62 | 1014.5 |
| 20260506194137 | 16 | 133 | 1.6 | 9.7 | 0.00 | 0.00 | 0.00 | 61 | 1014.4 |
| 20260506193640 | 16 | 0 | 0.0 | 14.5 | 0.00 | 0.00 | 0.00 | 61 | 1014.6 |
| 20260506193139 | 16 | 46 | 3.2 | 14.5 | 0.00 | 0.00 | 0.00 | 61 | 1014.5 |
| 20260506192637 | 16 | 180 | 8.0 | 11.3 | 0.00 | 0.00 | 0.00 | 63 | 1014.6 |
| 20260506192142 | 16 | 126 | 11.3 | 12.9 | 0.00 | 0.00 | 0.00 | 63 | 1014.6 |
| 20260506191616 | 16 | 286 | 6.4 | 12.9 | 0.00 | 0.00 | 0.00 | 61 | 1014.9 |
| 20260506191141 | 16 | 340 | 3.2 | 9.7 | 0.00 | 0.00 | 0.00 | 62 | 1015.0 |
| 20260506190647 | 15 | 128 | 4.8 | 9.7 | 0.00 | 0.00 | 0.00 | 63 | 1015.1 |
| 20260506190142 | 15 | 319 | 3.2 | 12.9 | 0.00 | 0.00 | 0.00 | 64 | 1015.1 |
| 20260506185638 | 15 | 352 | 1.6 | 16.1 | 0.00 | 0.00 | 0.00 | 62 | 1015.2 |
| 20260506185136 | 15 | 128 | 4.8 | 16.1 | 0.00 | 0.00 | 0.00 | 63 | 1015.2 |
| 20260506184643 | 15 | 111 | 14.5 | 12.9 | 0.00 | 0.00 | 0.00 | 65 | 1015.4 |
| 20260506184141 | 15 | 76 | 3.2 | 17.7 | 0.00 | 0.00 | 0.00 | 66 | 1015.4 |
| 20260506183639 | 15 | 31 | 8.0 | 17.7 | 0.00 | 0.00 | 0.00 | 65 | 1015.4 |
| 20260506183144 | 14 | 57 | 9.7 | 19.3 | 0.00 | 0.00 | 0.00 | 67 | 1015.2 |
| 20260506182640 | 14 | 92 | 4.8 | 19.3 | 0.00 | 0.00 | 0.00 | 66 | 1015.3 |
| 20260506182138 | 14 | 86 | 16.1 | 17.7 | 0.00 | 0.00 | 0.00 | 67 | 1015.3 |
| 20260506181637 | 14 | 57 | 8.0 | 16.1 | 0.00 | 0.00 | 0.00 | 67 | 1015.5 |
| 20260506181141 | 13 | 92 | 9.7 | 14.5 | 0.00 | 0.00 | 0.00 | 69 | 1015.4 |
| 20260506180639 | 13 | 52 | 8.0 | 16.1 | 0.00 | 0.00 | 0.00 | 69 | 1015.6 |
| 20260506180143 | 13 | 10 | 6.4 | 16.1 | 0.00 | 0.00 | 0.00 | 68 | 1015.5 |
| 20260506175643 | 13 | 17 | 6.4 | 16.1 | 0.00 | 0.00 | 0.00 | 68 | 1015.3 |
| 20260506175143 | 13 | 19 | 8.0 | 16.1 | 0.00 | 0.00 | 0.00 | 69 | 1015.3 |
| 20260506174642 | 13 | 352 | 4.8 | 12.9 | 0.00 | 0.00 | 0.00 | 70 | 1015.4 |
| 20260506174136 | 13 | 22 | 8.0 | 14.5 | 0.00 | 0.00 | 0.00 | 72 | 1015.4 |
| 20260506173642 | 12 | 30 | 8.0 | 17.7 | 0.00 | 0.00 | 0.00 | 73 | 1015.0 |
| 20260506173142 | 12 | 50 | 6.4 | 17.7 | 0.00 | 0.00 | 0.00 | 73 | 1014.8 |
| 20260506172623 | 12 | 360 | 6.4 | 14.5 | 0.00 | 0.00 | 0.00 | 72 | 1015.1 |
| 20260506172124 | 12 | 360 | 9.7 | 12.9 | 0.00 | 0.00 | 0.00 | 75 | 1015.5 |
| 20260506171622 | 12 | 360 | 4.8 | 12.9 | 0.00 | 0.00 | 0.00 | 74 | 1015.5 |
| 20260506171121 | 11 | 71 | 9.7 | 12.9 | 0.00 | 0.00 | 0.00 | 73 | 1015.8 |
| 20260506170621 | 11 | 360 | 4.8 | 12.9 | 0.00 | 0.00 | 0.00 | 73 | 1016.2 |
| 20260506170121 | 11 | 360 | 1.6 | 9.7 | 0.00 | 0.00 | 0.00 | 74 | 1016.3 |
| 20260506165620 | 11 | 49 | 3.2 | 9.7 | 0.00 | 0.00 | 0.00 | 72 | 1016.5 |
| 20260506165123 | 11 | 59 | 3.2 | 6.4 | 0.00 | 0.00 | 0.00 | 72 | 1016.8 |
| 20260506164624 | 11 | 86 | 3.2 | 6.4 | 0.00 | 0.00 | 0.00 | 74 | 1016.5 |
| 20260506164124 | 11 | 109 | 3.2 | 9.7 | 0.00 | 0.00 | 0.00 | 73 | 1016.6 |
| 20260506163620 | 11 | 74 | 4.8 | 11.3 | 0.00 | 0.00 | 0.00 | 73 | 1016.7 |
| 20260506163121 | 11 | 360 | 8.0 | 12.9 | 0.00 | 0.00 | 0.00 | 73 | 1016.4 |
| 20260506162620 | 11 | 93 | 9.7 | 12.9 | 0.00 | 0.00 | 0.00 | 73 | 1016.4 |
| 20260506162121 | 11 | 81 | 3.2 | 14.5 | 0.00 | 0.00 | 0.00 | 73 | 1015.8 |
| 20260506161620 | 11 | 71 | 4.8 | 14.5 | 0.00 | 0.00 | 0.00 | 73 | 1015.7 |
| 20260506161120 | 11 | 60 | 9.7 | 14.5 | 0.00 | 0.00 | 0.00 | 73 | 1015.7 |
| 20260506160621 | 11 | 59 | 8.0 | 14.5 | 0.00 | 0.00 | 0.00 | 73 | 1015.9 |
| 20260506160121 | 11 | 94 | 3.2 | 16.1 | 0.00 | 0.00 | 0.00 | 74 | 1015.7 |
| 20260506155618 | 11 | 60 | 14.5 | 19.3 | 0.00 | 0.00 | 0.00 | 73 | 1015.5 |
| 20260506155121 | 11 | 86 | 8.0 | 19.3 | 0.00 | 0.00 | 0.00 | 74 | 1015.6 |
| 20260506154621 | 11 | 55 | 11.3 | 19.3 | 0.00 | 0.00 | 0.00 | 72 | 1015.4 |
| 20260506154122 | 11 | 56 | 11.3 | 19.3 | 0.00 | 0.00 | 0.00 | 72 | 1015.1 |
| 20260506153618 | 11 | 63 | 6.4 | 20.9 | 0.00 | 0.00 | 0.00 | 74 | 1015.3 |
| 20260506153118 | 11 | 68 | 12.9 | 20.9 | 0.00 | 0.00 | 0.00 | 72 | 1015.4 |
| 20260506152619 | 11 | 87 | 8.0 | 19.3 | 0.00 | 0.00 | 0.00 | 72 | 1015.3 |
| 20260506152121 | 11 | 67 | 8.0 | 19.3 | 0.00 | 0.00 | 0.00 | 73 | 1015.3 |
| 20260506151621 | 11 | 63 | 8.0 | 22.5 | 0.00 | 0.00 | 0.00 | 72 | 1015.3 |
| 20260506151119 | 11 | 52 | 16.1 | 22.5 | 0.00 | 0.00 | 0.00 | 71 | 1015.3 |
| 20260506150619 | 11 | 360 | 9.7 | 20.9 | 0.00 | 0.00 | 0.00 | 72 | 1015.3 |
| 20260506150119 | 11 | 360 | 12.9 | 17.7 | 0.00 | 0.00 | 0.00 | 73 | 1015.1 |
| 20260506145617 | 11 | 360 | 1.6 | 17.7 | 0.00 | 0.00 | 0.00 | 73 | 1015.0 |
| 20260506145118 | 11 | 360 | 17.7 | 22.5 | 0.00 | 0.00 | 0.00 | 73 | 1014.9 |
| 20260506144617 | 10 | 360 | 12.9 | 24.1 | 0.00 | 0.00 | 0.00 | 73 | 1014.7 |
| 20260506144116 | 10 | 62 | 22.5 | 24.1 | 0.00 | 0.00 | 0.00 | 72 | 1014.9 |
| 20260506143617 | 10 | 79 | 14.5 | 20.9 | 0.00 | 0.00 | 0.00 | 73 | 1015.1 |
| 20260506143116 | 10 | 74 | 6.4 | 20.9 | 0.00 | 0.00 | 0.00 | 72 | 1014.9 |
| 20260506142617 | 10 | 53 | 17.7 | 22.5 | 0.00 | 0.00 | 0.00 | 72 | 1015.1 |
| 20260506142116 | 10 | 49 | 14.5 | 22.5 | 0.00 | 0.00 | 0.00 | 72 | 1015.1 |
| 20260506141616 | 10 | 74 | 14.5 | 17.7 | 0.00 | 0.00 | 0.00 | 72 | 1015.1 |
| 20260506141116 | 11 | 57 | 16.1 | 25.7 | 0.00 | 0.00 | 0.00 | 71 | 1015.0 |
| 20260506140641 | 11 | 68 | 12.9 | 25.7 | 0.00 | 0.00 | 0.00 | 71 | 1014.6 |
| 20260506140139 | 11 | 49 | 16.1 | 20.9 | 0.00 | 0.00 | 0.00 | 70 | 1014.9 |
| 20260506135643 | 11 | 42 | 14.5 | 14.5 | 0.00 | 0.00 | 0.00 | 72 | 1014.8 |
| 20260506135143 | 11 | 44 | 8.0 | 16.1 | 0.00 | 0.00 | 0.00 | 72 | 1014.7 |
| 20260506134642 | 10 | 68 | 4.8 | 16.1 | 0.00 | 0.00 | 0.00 | 72 | 1014.4 |
| 20260506134140 | 10 | 57 | 9.7 | 16.1 | 0.00 | 0.00 | 0.00 | 74 | 1014.2 |
| 20260506133635 | 10 | 83 | 8.0 | 16.1 | 0.00 | 0.00 | 0.00 | 74 | 1014.3 |
| 20260506133142 | 10 | 53 | 8.0 | 14.5 | 0.00 | 0.00 | 0.00 | 73 | 1014.6 |
| 20260506132641 | 10 | 52 | 8.0 | 16.1 | 0.00 | 0.00 | 0.00 | 74 | 1014.7 |
| 20260506132137 | 10 | 45 | 8.0 | 16.1 | 0.00 | 0.00 | 0.00 | 75 | 1014.4 |
| 20260506131643 | 10 | 48 | 6.4 | 16.1 | 0.00 | 0.00 | 0.00 | 75 | 1014.2 |
| 20260506131138 | 10 | 58 | 9.7 | 17.7 | 0.00 | 0.00 | 0.00 | 75 | 1014.5 |
| 20260506130637 | 10 | 75 | 8.0 | 17.7 | 0.00 | 0.00 | 0.00 | 74 | 1014.7 |
| 20260506130143 | 10 | 64 | 4.8 | 16.1 | 0.00 | 0.00 | 0.00 | 75 | 1014.8 |
| 20260506125644 | 10 | 55 | 14.5 | 16.1 | 0.00 | 0.00 | 0.00 | 75 | 1014.7 |
| 20260506125138 | 10 | 46 | 11.3 | 19.3 | 0.00 | 0.00 | 0.00 | 74 | 1014.8 |
| 20260506124637 | 10 | 76 | 11.3 | 19.3 | 0.00 | 0.00 | 0.00 | 74 | 1014.3 |
| 20260506124138 | 10 | 66 | 8.0 | 19.3 | 0.00 | 0.00 | 0.00 | 74 | 1014.4 |
| 20260506123645 | 10 | 71 | 9.7 | 20.9 | 0.00 | 0.00 | 0.00 | 74 | 1014.2 |
| 20260506123143 | 10 | 61 | 8.0 | 20.9 | 0.00 | 0.00 | 0.00 | 75 | 1014.1 |
| 20260506122639 | 10 | 68 | 16.1 | 17.7 | 0.00 | 0.00 | 0.00 | 77 | 1013.6 |
| 20260506122141 | 10 | 58 | 9.7 | 14.5 | 0.00 | 0.00 | 0.00 | 79 | 1013.7 |
| 20260506121636 | 10 | 80 | 4.8 | 9.7 | 0.00 | 0.00 | 0.00 | 81 | 1013.7 |
| 20260506121136 | 10 | 92 | 4.8 | 9.7 | 0.00 | 0.00 | 0.00 | 81 | 1013.7 |
| 20260506120641 | 10 | 82 | 6.4 | 9.7 | 0.00 | 0.00 | 0.00 | 82 | 1013.6 |
| 20260506120138 | 10 | 113 | 6.4 | 9.7 | 0.00 | 0.00 | 0.00 | 83 | 1013.2 |
| 20260506115639 | 10 | 86 | 1.6 | 4.8 | 0.00 | 0.00 | 0.00 | 84 | 1013.3 |
| 20260506115139 | 10 | 90 | 3.2 | 4.8 | 0.00 | 0.00 | 0.00 | 84 | 1013.2 |
| 20260506114636 | 10 | 0 | 0.0 | 3.2 | 0.00 | 0.00 | 0.00 | 84 | 1013.4 |
| 20260506114142 | 10 | 55 | 1.6 | 3.2 | 0.00 | 0.00 | 0.00 | 83 | 1013.4 |
| 20260506113642 | 10 | 0 | 0.0 | 4.8 | 0.00 | 0.00 | 0.00 | 83 | 1013.2 |
| 20260506113138 | 10 | 26 | 1.6 | 4.8 | 0.00 | 0.00 | 0.00 | 83 | 1012.8 |
| 20260506112638 | 10 | 40 | 3.2 | 4.8 | 0.00 | 0.00 | 0.00 | 83 | 1012.4 |
| 20260506112142 | 10 | 19 | 3.2 | 4.8 | 0.00 | 0.00 | 0.00 | 83 | 1012.5 |
| 20260506111637 | 10 | 0 | 0.0 | 6.4 | 0.00 | 0.00 | 0.00 | 83 | 1012.5 |
| 20260506111139 | 10 | 57 | 3.2 | 6.4 | 0.00 | 0.00 | 0.00 | 83 | 1012.2 |
| 20260506110637 | 10 | 60 | 6.4 | 8.0 | 0.00 | 0.00 | 0.00 | 83 | 1012.2 |
| 20260506110141 | 10 | 60 | 4.8 | 9.7 | 0.00 | 0.00 | 0.00 | 83 | 1011.8 |
| 20260506105644 | 10 | 55 | 6.4 | 11.3 | 0.00 | 0.00 | 0.00 | 83 | 1011.7 |
| 20260506105142 | 10 | 32 | 6.4 | 11.3 | 0.00 | 0.00 | 0.00 | 83 | 1011.6 |
| 20260506104641 | 10 | 36 | 6.4 | 9.7 | 0.00 | 0.00 | 0.00 | 84 | 1011.6 |
| 20260506104137 | 10 | 46 | 8.0 | 16.1 | 0.00 | 0.00 | 0.00 | 84 | 1011.4 |
| 20260506103639 | 10 | 30 | 3.2 | 19.3 | 0.00 | 0.00 | 0.00 | 84 | 1011.3 |
| 20260506103142 | 10 | 29 | 6.4 | 19.3 | 0.00 | 0.00 | 0.00 | 85 | 1011.2 |
| 20260506102638 | 10 | 51 | 8.0 | 19.3 | 0.00 | 0.00 | 0.00 | 84 | 1011.0 |
| 20260506102142 | 10 | 38 | 8.0 | 12.9 | 0.00 | 0.00 | 0.00 | 84 | 1011.3 |
| 20260506101637 | 10 | 60 | 6.4 | 12.9 | 0.00 | 0.00 | 0.00 | 84 | 1011.3 |
| 20260506101140 | 10 | 59 | 1.6 | 8.0 | 0.00 | 0.00 | 0.00 | 84 | 1011.3 |
| 20260506100639 | 10 | 40 | 8.0 | 11.3 | 0.00 | 0.00 | 0.00 | 84 | 1011.1 |
| 20260506100142 | 10 | 40 | 3.2 | 11.3 | 0.00 | 0.00 | 0.00 | 84 | 1011.2 |
| 20260506095629 | 10 | 44 | 8.0 | 11.3 | 0.00 | 0.00 | 0.00 | 84 | 1010.8 |
| 20260506095132 | 10 | 28 | 6.4 | 12.9 | 0.00 | 0.00 | 0.00 | 84 | 1011.0 |
| 20260506094631 | 10 | 58 | 4.8 | 12.9 | 0.00 | 0.00 | 0.00 | 84 | 1010.9 |
| 20260506094129 | 10 | 22 | 4.8 | 8.0 | 0.00 | 0.00 | 0.00 | 85 | 1010.9 |
| 20260506093628 | 10 | 57 | 3.2 | 14.5 | 0.00 | 0.00 | 0.00 | 86 | 1011.0 |
| 20260506093129 | 10 | 27 | 4.8 | 14.5 | 0.00 | 0.00 | 0.00 | 86 | 1010.5 |
| 20260506092628 | 10 | 28 | 6.4 | 14.5 | 0.00 | 0.00 | 0.00 | 86 | 1010.3 |
| 20260506092128 | 10 | 23 | 4.8 | 11.3 | 0.00 | 0.00 | 0.00 | 87 | 1010.1 |
| 20260506091628 | 10 | 46 | 4.8 | 11.3 | 0.00 | 0.00 | 0.00 | 86 | 1009.8 |
| 20260506091129 | 10 | 36 | 4.8 | 11.3 | 0.00 | 0.00 | 0.00 | 87 | 1010.0 |
| 20260506090630 | 10 | 13 | 4.8 | 6.4 | 0.00 | 0.00 | 0.00 | 87 | 1010.2 |
| 20260506090126 | 10 | 19 | 1.6 | 8.0 | 0.00 | 0.00 | 0.00 | 87 | 1010.2 |
| 20260506085628 | 10 | 22 | 3.2 | 8.0 | 0.00 | 0.00 | 0.00 | 87 | 1010.1 |
| 20260506085129 | 10 | 29 | 3.2 | 8.0 | 0.00 | 0.00 | 0.00 | 86 | 1010.0 |
| 20260506084627 | 10 | 17 | 6.4 | 11.3 | 0.00 | 0.00 | 0.00 | 86 | 1010.1 |
| 20260506084125 | 10 | 32 | 4.8 | 12.9 | 0.00 | 0.00 | 0.00 | 86 | 1010.1 |
| 20260506083627 | 10 | 36 | 8.0 | 12.9 | 0.00 | 0.00 | 0.00 | 86 | 1009.9 |
| 20260506083125 | 10 | 34 | 4.8 | 16.1 | 0.00 | 0.00 | 0.00 | 87 | 1009.7 |
| 20260506082624 | 10 | 41 | 3.2 | 16.1 | 0.00 | 0.00 | 0.00 | 87 | 1010.0 |
| 20260506082126 | 10 | 11 | 11.3 | 16.1 | 0.00 | 0.00 | 0.00 | 87 | 1009.7 |
| 20260506081625 | 10 | 65 | 9.7 | 16.1 | 0.00 | 0.00 | 0.00 | 87 | 1009.8 |
| 20260506081125 | 10 | 50 | 6.4 | 8.0 | 0.00 | 0.00 | 0.00 | 87 | 1009.6 |
| 20260506080627 | 10 | 0 | 0.0 | 4.8 | 0.00 | 0.00 | 0.00 | 87 | 1009.6 |
| 20260506080124 | 10 | 15 | 4.8 | 6.4 | 0.00 | 0.00 | 0.00 | 87 | 1009.8 |
| 20260506073126 | 11 | 43 | 11.3 | 16.1 | 0.00 | 0.00 | 0.00 | 86 | 1009.5 |
| 20260506072624 | 11 | 352 | 4.8 | 8.0 | 0.00 | 0.00 | 0.00 | 87 | 1009.8 |
| 20260506072121 | 11 | 5 | 1.6 | 9.7 | 0.00 | 0.00 | 0.00 | 87 | 1010.0 |
| 20260506071623 | 11 | 327 | 4.8 | 12.9 | 0.00 | 0.00 | 0.00 | 87 | 1009.7 |
| 20260506071121 | 11 | 17 | 3.2 | 12.9 | 0.00 | 0.00 | 0.00 | 87 | 1009.5 |
| 20260506070622 | 11 | 17 | 6.4 | 11.3 | 0.00 | 0.00 | 0.00 | 88 | 1009.4 |
| 20260506070123 | 11 | 13 | 3.2 | 11.3 | 0.00 | 0.00 | 0.00 | 88 | 1009.3 |
| 20260506062121 | 11 | 20 | 3.2 | 12.9 | 0.00 | 0.00 | 0.00 | 91 | 1009.4 |
| 20260506061621 | 11 | 33 | 1.6 | 11.3 | 0.00 | 0.00 | 0.00 | 91 | 1009.5 |
| 20260506061119 | 10 | 38 | 4.8 | 12.9 | 0.00 | 0.00 | 0.00 | 92 | 1009.3 |
| 20260506060620 | 10 | 12 | 6.4 | 12.9 | 0.00 | 0.00 | 0.00 | 92 | 1009.2 |
| 20260506060121 | 10 | 19 | 3.2 | 12.9 | 0.00 | 0.00 | 0.00 | 92 | 1009.3 |
| 20260506051120 | 10 | 25 | 12.9 | 12.9 | 0.00 | 0.00 | 0.00 | 91 | 1009.2 |
| 20260506050619 | 11 | 35 | 6.4 | 16.1 | 0.00 | 0.00 | 0.00 | 91 | 1009.2 |
| 20260506050121 | 11 | 360 | 4.8 | 16.1 | 0.00 | 0.00 | 0.00 | 91 | 1009.2 |
| 20260506045120 | 11 | 30 | 14.5 | 17.7 | 0.00 | 0.00 | 0.13 | 90 | 1009.1 |
| 20260506044618 | 11 | 19 | 12.9 | 14.5 | 0.00 | 0.00 | 0.13 | 89 | 1009.0 |
| 20260506044118 | 11 | 360 | 8.0 | 14.5 | 0.00 | 0.00 | 0.13 | 89 | 1008.9 |
| 20260506043618 | 11 | 39 | 6.4 | 16.1 | 0.00 | 0.00 | 0.13 | 88 | 1008.9 |
| 20260506043117 | 12 | 5 | 6.4 | 16.1 | 0.00 | 0.00 | 0.13 | 88 | 1008.8 |
| 20260506042618 | 12 | 352 | 6.4 | 16.1 | 0.00 | 0.00 | 0.13 | 87 | 1008.5 |
| 20260506042117 | 12 | 28 | 8.0 | 14.5 | 0.00 | 0.00 | 0.13 | 86 | 1008.6 |
| 20260506041616 | 12 | 43 | 11.3 | 19.3 | 0.00 | 0.00 | 0.13 | 85 | 1008.5 |
| 20260506041117 | 12 | 348 | 4.8 | 19.3 | 0.00 | 0.00 | 0.13 | 85 | 1008.7 |
| 20260506040616 | 12 | 346 | 19.3 | 19.3 | 0.00 | 0.00 | 0.13 | 85 | 1008.5 |
| 20260506040116 | 12 | 343 | 6.4 | 19.3 | 0.00 | 0.00 | 0.13 | 85 | 1008.4 |
| 20260506035618 | 12 | 352 | 6.4 | 19.3 | 0.00 | 0.00 | 0.13 | 85 | 1008.3 |
| 20260506035117 | 13 | 335 | 4.8 | 16.1 | 0.00 | 0.00 | 0.13 | 85 | 1008.3 |
| 20260506034616 | 13 | 337 | 3.2 | 9.7 | 0.00 | 0.00 | 0.13 | 85 | 1008.2 |
| 20260506034115 | 13 | 317 | 8.0 | 9.7 | 0.00 | 0.00 | 0.13 | 86 | 1007.9 |
| 20260506033616 | 13 | 360 | 6.4 | 14.5 | 0.00 | 0.00 | 0.13 | 86 | 1007.7 |
| 20260506033136 | 13 | 340 | 8.0 | 14.5 | 0.00 | 0.00 | 0.13 | 85 | 1007.6 |
| 20260506032618 | 13 | 350 | 3.2 | 12.9 | 0.00 | 0.00 | 0.13 | 86 | 1007.5 |
| 20260506032115 | 13 | 322 | 6.4 | 12.9 | 0.00 | 0.00 | 0.13 | 86 | 1007.4 |